Location: Feigenhofen
(48.4939°N, 10.7793°E)
Time: 15:35:49
(UTC+00:00)

USA 305 - Pass Details

Date: 26 May 2022
Orbit: 549 x 553 km, 54.0° (Epoch: 14 June)

Event Time Altitude Azimuth Distance (km) Brightness Sun altitude
Exits shadow 01:02:59 24° 249° (WSW) 1,166 4.1 -16.3°
Maximum altitude 01:05:25 79° 333° (NNW) 565 2.9 -16.1°
Drops below altitude 10° 01:09:35 10° 61° (ENE) 1,828 6.3 -15.8°
Sets 01:11:49 0° 63° (ENE) 2,724 7.3 -15.6°
